Satellite: OKEAN-4 Catalog number: 23317 Epoch time: 10300.78356349 Element set: 0378 Inclination: 082.5420 deg RA of node: 230.0830 deg Eccentricity: 0.0022387 Arg of perigee: 160.3763 deg Mean anomaly: 199.8340 deg Mean motion: 14.82883751 rev/day Decay rate: 4.33e-06 rev/day^2 Epoch rev: 86610 Checksum: 294
Satellite: NOAA-14 Catalog number: 23455 Epoch time: 10301.33339575 Element set: 246 Inclination: 098.8710 deg RA of node: 021.0921 deg Eccentricity: 0.0008786 Arg of perigee: 214.7116 deg Mean anomaly: 145.3509 deg Mean motion: 14.13798260 rev/day Decay rate: 1.2e-07 rev/day^2 Epoch rev: 81631 Checksum: 279
Satellite: NOAA-15 Catalog number: 25338 Epoch time: 10301.29622088 Element set: 574 Inclination: 098.6330 deg RA of node: 285.9285 deg Eccentricity: 0.0011477 Arg of perigee: 050.6187 deg Mean anomaly: 309.6026 deg Mean motion: 14.24862396 rev/day Decay rate: 3.9e-07 rev/day^2 Epoch rev: 64770 Checksum: 318
Satellite: RESURS Catalog number: 25394 Epoch time: 10301.55068627 Element set: 637 Inclination: 098.3016 deg RA of node: 312.3536 deg Eccentricity: 0.0001164 Arg of perigee: 146.4263 deg Mean anomaly: 213.6987 deg Mean motion: 14.24213701 rev/day Decay rate: 2.0e-07 rev/day^2 Epoch rev: 63933 Checksum: 268
Satellite: FENGYUN1 Catalog number: 25730 Epoch time: 10300.81238445 Element set: 0172 Inclination: 098.7976 deg RA of node: 262.3871 deg Eccentricity: 0.0020422 Arg of perigee: 253.2793 deg Mean anomaly: 106.6146 deg Mean motion: 14.08359604 rev/day Decay rate: 1.109e-05 rev/day^2 Epoch rev: 59035 Checksum: 288
Satellite: OKEAN-0 Catalog number: 25860 Epoch time: 10300.88815886 Element set: 0135 Inclination: 097.8512 deg RA of node: 269.2070 deg Eccentricity: 0.0001685 Arg of perigee: 053.9009 deg Mean anomaly: 306.2361 deg Mean motion: 14.73675846 rev/day Decay rate: 1.54e-06 rev/day^2 Epoch rev: 60644 Checksum: 302
Satellite: NOAA-16 Catalog number: 26536 Epoch time: 10301.53194052 Element set: 50 Inclination: 099.1640 deg RA of node: 322.1099 deg Eccentricity: 0.0010070 Arg of perigee: 326.3961 deg Mean anomaly: 033.6569 deg Mean motion: 14.12583853 rev/day Decay rate: 2.37e-06 rev/day^2 Epoch rev: 52065 Checksum: 273
Satellite: NOAA-17 Catalog number: 27453 Epoch time: 10301.34155174 Element set: 40 Inclination: 098.4151 deg RA of node: 346.3131 deg Eccentricity: 0.0012727 Arg of perigee: 107.3453 deg Mean anomaly: 252.9128 deg Mean motion: 14.24202947 rev/day Decay rate: 1.3e-07 rev/day^2 Epoch rev: 43365 Checksum: 259
Satellite: NOAA-18 Catalog number: 28654 Epoch time: 10301.36432412 Element set: 530 Inclination: 098.9662 deg RA of node: 247.3312 deg Eccentricity: 0.0015092 Arg of perigee: 040.2479 deg Mean anomaly: 319.9812 deg Mean motion: 14.11400503 rev/day Decay rate: -1.03e-06 rev/day^2 Epoch rev: 28022 Checksum: 258
Satellite: NOAA-19 Catalog number: 33591 Epoch time: 10301.38136714 Element set: 726 Inclination: 098.8010 deg RA of node: 240.7398 deg Eccentricity: 0.0013292 Arg of perigee: 273.0538 deg Mean anomaly: 086.9107 deg Mean motion: 14.11098688 rev/day Decay rate: 3.71e-06 rev/day^2 Epoch rev: 8869 Checksum: 317
/EX SB KEPS @ AMSAT $ORB10301.M Orbital Elements 10301.MISC
HR AMSAT ORBITAL ELEMENTS FOR MANNED AND MISCELLANEOUS SATELLITES FROM WA5QGD FORT WORTH,TX October 28, 2010 BID: ORB10301.M TO ALL RADIO AMATEURS BT
Satellite: HUBBLE Catalog number: 20580 Epoch time: 10300.09759300 Element set: 668 Inclination: 028.4686 deg RA of node: 098.6536 deg Eccentricity: 0.0003467 Arg of perigee: 162.6448 deg Mean anomaly: 197.4276 deg Mean motion: 15.01074509 rev/day Decay rate: 7.18e-06 rev/day^2 Epoch rev: 92459 Checksum: 316
Satellite: ISS Catalog number: 25544 Epoch time: 10301.84623521 Element set: 166 Inclination: 051.6474 deg RA of node: 266.7289 deg Eccentricity: 0.0008632 Arg of perigee: 132.6333 deg Mean anomaly: 310.7307 deg Mean motion: 15.71999554 rev/day Decay rate: 3.1767e-04 rev/day^2 Epoch rev: 68449 Checksum: 314
Satellite: CO-58 Catalog number: 28895 Epoch time: 10300.60165547 Element set: 715 Inclination: 097.9934 deg RA of node: 180.5463 deg Eccentricity: 0.0017073 Arg of perigee: 227.9381 deg Mean anomaly: 132.0357 deg Mean motion: 14.59954611 rev/day Decay rate: 3.69e-06 rev/day^2 Epoch rev: 26630 Checksum: 325
Satellite: FALCON Catalog number: 30776 Epoch time: 10300.46993658 Element set: 0953 Inclination: 035.4348 deg RA of node: 321.0490 deg Eccentricity: 0.0001246 Arg of perigee: 282.7568 deg Mean anomaly: 077.3009 deg Mean motion: 15.03908896 rev/day Decay rate: 1.414e-05 rev/day^2 Epoch rev: 19998 Checksum: 320
Satellite: MAST Catalog number: 31126 Epoch time: 10300.59170137 Element set: 997 Inclination: 097.9226 deg RA of node: 335.6603 deg Eccentricity: 0.0094513 Arg of perigee: 173.8627 deg Mean anomaly: 186.3747 deg Mean motion: 14.53634466 rev/day Decay rate: 1.12e-06 rev/day^2 Epoch rev: 18729 Checksum: 310
Satellite: CAPE1 Catalog number: 31130 Epoch time: 10301.80439860 Element set: 17 Inclination: 097.9238 deg RA of node: 333.9598 deg Eccentricity: 0.0102991 Arg of perigee: 179.0292 deg Mean anomaly: 181.1061 deg Mean motion: 14.52241003 rev/day Decay rate: 2.09e-06 rev/day^2 Epoch rev: 18705 Checksum: 271
Satellite: COMPASS Catalog number: 32787 Epoch time: 10300.30551468 Element set: 0815 Inclination: 097.8805 deg RA of node: 003.1487 deg Eccentricity: 0.0014976 Arg of perigee: 212.8167 deg Mean anomaly: 147.2110 deg Mean motion: 14.82017970 rev/day Decay rate: 9.02e-06 rev/day^2 Epoch rev: 13506 Checksum: 281
Satellite: AAUSAT2 Catalog number: 32788 Epoch time: 10300.70054902 Element set: 0805 Inclination: 097.8805 deg RA of node: 003.6959 deg Eccentricity: 0.0014721 Arg of perigee: 212.0538 deg Mean anomaly: 147.9794 deg Mean motion: 14.82172615 rev/day Decay rate: 1.289e-05 rev/day^2 Epoch rev: 13513 Checksum: 298
Satellite: DO-64 Catalog number: 32789 Epoch time: 10300.82854032 Element set: 822 Inclination: 097.8881 deg RA of node: 004.4561 deg Eccentricity: 0.0015013 Arg of perigee: 209.5738 deg Mean anomaly: 150.4611 deg Mean motion: 14.82392707 rev/day Decay rate: 1.584e-05 rev/day^2 Epoch rev: 13515 Checksum: 295
Satellite: CO-66 Catalog number: 32791 Epoch time: 10300.21252044 Element set: 0807 Inclination: 097.8805 deg RA of node: 003.0527 deg Eccentricity: 0.0015125 Arg of perigee: 212.5282 deg Mean anomaly: 147.5042 deg Mean motion: 14.81779055 rev/day Decay rate: 8.30e-06 rev/day^2 Epoch rev: 13500 Checksum: 263
Satellite: RS-30 Catalog number: 32953 Epoch time: 10301.50003976 Element set: 169 Inclination: 082.4995 deg RA of node: 306.7858 deg Eccentricity: 0.0018835 Arg of perigee: 167.2759 deg Mean anomaly: 192.8804 deg Mean motion: 12.43008848 rev/day Decay rate: 1.0e-07 rev/day^2 Epoch rev: 11030 Checksum: 299
Satellite: TACSAT-3 Catalog number: 35001 Epoch time: 10301.80887240 Element set: 417 Inclination: 040.4539 deg RA of node: 130.6598 deg Eccentricity: 0.0023167 Arg of perigee: 287.1305 deg Mean anomaly: 072.6973 deg Mean motion: 15.43331857 rev/day Decay rate: 8.011e-05 rev/day^2 Epoch rev: 8127 Checksum: 279
Satellite: PHARMSAT Catalog number: 35002 Epoch time: 10300.88231926 Element set: 389 Inclination: 040.4684 deg RA of node: 133.8541 deg Eccentricity: 0.0025963 Arg of perigee: 282.9927 deg Mean anomaly: 076.7988 deg Mean motion: 15.43675952 rev/day Decay rate: 7.498e-05 rev/day^2 Epoch rev: 8115 Checksum: 331
Satellite: HAWKSAT1 Catalog number: 35003 Epoch time: 10301.82163704 Element set: 424 Inclination: 040.4586 deg RA of node: 118.2740 deg Eccentricity: 0.0024359 Arg of perigee: 308.6466 deg Mean anomaly: 051.2171 deg Mean motion: 15.48477087 rev/day Decay rate: 1.6719e-04 rev/day^2 Epoch rev: 8141 Checksum: 277
Satellite: CP6 Catalog number: 35004 Epoch time: 10301.78836223 Element set: 422 Inclination: 040.4608 deg RA of node: 116.2216 deg Eccentricity: 0.0023101 Arg of perigee: 314.3606 deg Mean anomaly: 045.5304 deg Mean motion: 15.49983853 rev/day Decay rate: 2.1566e-04 rev/day^2 Epoch rev: 8142 Checksum: 259
Satellite: AEROCUB3 Catalog number: 35005 Epoch time: 10301.78343267 Element set: 500 Inclination: 040.4653 deg RA of node: 102.9801 deg Eccentricity: 0.0024051 Arg of perigee: 340.5960 deg Mean anomaly: 019.3915 deg Mean motion: 15.66044514 rev/day Decay rate: 1.20483e-03 rev/day^2 Epoch rev: 8157 Checksum: 257
Satellite: CASTOR Catalog number: 35694 Epoch time: 10230.44082147 Element set: 655 Inclination: 051.5930 deg RA of node: 222.0149 deg Eccentricity: 0.0004218 Arg of perigee: 308.0851 deg Mean anomaly: 053.0105 deg Mean motion: 16.48877011 rev/day Decay rate: 7.179566e-02 rev/day^2 Epoch rev: 6110 Checksum: 273
Satellite: METEOR-M Catalog number: 35865 Epoch time: 10301.62924063 Element set: 782 Inclination: 098.7424 deg RA of node: 354.3608 deg Eccentricity: 0.0002796 Arg of perigee: 357.6691 deg Mean anomaly: 002.4440 deg Mean motion: 14.21832380 rev/day Decay rate: 1.76e-06 rev/day^2 Epoch rev: 5768 Checksum: 301
Satellite: RS-38 Catalog number: 35869 Epoch time: 10301.72681636 Element set: 796 Inclination: 098.7406 deg RA of node: 354.4974 deg Eccentricity: 0.0005107 Arg of perigee: 350.7588 deg Mean anomaly: 009.3466 deg Mean motion: 14.21991924 rev/day Decay rate: 1.77e-06 rev/day^2 Epoch rev: 5770 Checksum: 341
/EX